Location: Gisborne
(38.6530°S, 178.0040°E)
Time: 23:12:34
(UTC+13:00)

Cosmos 2263 Rocket - Pass Details

Date: 24 January 2019
Orbit: 823 x 849 km, 71.0° (Epoch: 16 February)

Event Time Altitude Azimuth Distance (km) Brightness Sun altitude
Rises 21:36:59 0° 199° (SSW) 3,411 6.4 -12.1°
Reaches altitude 10° 21:39:29 10° 195° (SSW) 2,474 5.5 -12.5°
Maximum altitude 21:45:06 59° 115° (ESE) 971 2.4 -13.3°
Enters shadow 21:49:04 20° 40° (NE) 1,882 3.4 -13.9°
